Regional Weather Roundup
Issued by NWS

Home | Current Version | Previous Version | Text Only | Print | Product List | Glossary On
Versions: 1 2 3 4 5 6 7 8 9 10 11 12 13 14 15 16 17 18 19 20 21 22 23 24 25 26 27
000
ASCA42 TJSJ 271710
RWRPR
PUERTO RICO/U.S. VIRGIN ISLANDS HOURLY WEATHER ROUNDUP
NATIONAL WEATHER SERVICE SAN JUAN PR
100 PM AST TUE JUN 27 2017

PRZ001>002-007>008-010-271800-
PUERTO RICO

CITY           SKY/WX    TMP DP  RH WIND       PRES   REMARKS
SAN JUAN LMM   MOSUNNY   88  75  66 NE16      30.04F HX  97
AGUADILLA      MOSUNNY   86  73  66 E17       30.05F HX  93
CEIBA          PTSUNNY   86  79  79 NE10      30.06F HX  99
$$

VIZ001>002-271800-
U.S. VIRGIN ISLANDS

CITY           SKY/WX    TMP DP  RH WIND       PRES   REMARKS
CHARLOTTE AMA  MOSUNNY   90  73  58 NE16      30.02F HX  98
CHRISTIANSTED  MOSUNNY   90  75  62 NE16      30.03F HX 100
$$

HOURLY WEATHER ROUNDUP FOR THE NEWS MEDIA

CITY           SKY/WX    TMP DP  RH WIND       PRES   REMARKS
ORLANDO        CLOUDY    89  72  56 NW5       30.00F HX  96
NEW YORK       PTSUNNY   73  57  57 SW8       29.99F
NEWARK         PTSUNNY   76  56  49 SW9       29.97F
CHICAGO        MOSUNNY   73  44  35 NW12      30.12S
HARTFORD       CLOUDY    71  61  70 S8        29.99F
BOSTON         PTSUNNY   69  58  67 SE7       29.97F
DALLAS         PTSUNNY   86  71  60 S3        30.01F HX  91
PHILADELPHIA   MOSUNNY   77  54  44 SW8       29.99F
LOS ANGELES    SUNNY     73  62  68 W9        29.89S
WASHINGTON DC  PTSUNNY   75  48  38 VRB6      30.02F



USA.gov is the U.S. government's official web portal to all federal, state and local government web resources and services.